Regional Weather Roundup
Issued by NWS Upton, NY

Current Version | Previous Version | Text Only | Print | Product List | Glossary On
Versions: 1 2 3 4 5 6 7 8 9 10 11 12 13 14 15 16 17 18 19 20 21 22 23 24 25 26 27 28 29 30 31 32 33 34 35 36 37 38 39 40 41 42 43 44 45 46 47 48 49 50
344
ASUS41 KOKX 251208
RWROKX

REGIONAL WEATHER ROUNDUP
NATIONAL WEATHER SERVICE NEW YORK NY
700 AM EST SAT FEB 25 2017

NOTE: "FAIR" INDICATES FEW OR NO CLOUDS BELOW 12,000 FEET WITH NO
SIGNIFICANT WEATHER AND/OR OBSTRUCTIONS TO VISIBILITY.

NYZ071-072-176-178-NJZ106-104-251300-
NEW YORK CITY METRO AREA

CITY           SKY/WX    TMP DP  RH WIND       PRES   REMARKS
Central Park   CLOUDY    50  50 100 CALM      29.80S FOG
Wall St Helipt NOT AVBL
LaGuardia APRT FOG       51  50  96 S6        29.78F VSB 1/4
Kennedy INTL   FOG       48  48 100 SE7       29.80F VSB 1/4
Breezy Point     N/A     45 N/A N/A S7          N/A
Newark/Liberty FOG       49  48  97 E5        29.77F VSB 1/8
Teterboro      FOG       52  51  97 S3        29.76F VSB 1/8
$$

NYZ177-179-078>081-251300-
LONG ISLAND NEW YORK

CITY           SKY/WX    TMP DP  RH WIND       PRES   REMARKS
Jones Beach      N/A     45 N/A N/A SE8         N/A
Matinecock PT  NOT AVBL
Farmingdale    FOG       50  50 100 SE6       29.80F VSB<1/4
MacArthur/ISP  FOG       51  51 100 SE8       29.80F VSB 1/16
Shirley        FOG       51  51 100 SE7       29.82F VSB 1/4
Westhampton    CLOUDY    51  50  96 S5        29.84F FOG
Southampton    NOT AVBL
Bridgehampton  NOT AVBL
East Hampton   MOCLDY    50  49  96 S3        29.83S
Montauk          N/A     48  48 100 S5        29.86R
$$

NYZ052-065-067-251300-
HUDSON VALLEY

CITY           SKY/WX    TMP DP  RH WIND       PRES   REMARKS
White Plains   FOG       53  52  96 SE7       29.77F VSB<1/4
Newburgh       MOCLDY    61  57  88 SW12      29.75S
Montgomery     CLOUDY    60  55  83 S12       29.71F
Poughkeepsie   CLOUDY    59  54  83 VRB5      29.73F
Albany         MOCLDY    60  53  77 S15G23    29.68F
$$

NJZ001-105-106-008-010-013-015-019>022-104-251300-
NEW JERSEY

CITY           SKY/WX    TMP DP  RH WIND       PRES   REMARKS
Newark/Liberty FOG       49  48  97 E5        29.77F VSB 1/8
Teterboro      FOG       52  51  97 S3        29.76F VSB 1/8
Caldwell       MOCLDY    57  54  89 S7        29.76F
Somerville     CLOUDY    56  54  93 MISG      29.73F
Linden         NOT AVBL
Sussex         MOCLDY    59  55  87 S3        29.73F
Andover          N/A     59  55  87 VRB6      29.73F
Trenton        CLOUDY    56  55  97 S8        29.74F
Millville      MOCLDY    56  56 100 S5        29.76F
Atlantic City  FOG       51  50  96 SE7       29.78S VSB 1/2
Wrightstown    CLOUDY    56  55  95 S8        29.74F
Toms River     PTCLDY    52  52 100 S6        29.79S
Belmar         FOG       50  50 100 SE6       29.79S VSB 1/4
$$

PAZ047>061-062-071-251300-
EASTERN PENNSYLVANIA

CITY           SKY/WX    TMP DP  RH WIND       PRES   REMARKS
Philadelphia   CLOUDY    58  55  90 S5        29.75F
Allentown      CLOUDY    61  54  77 S9        29.71S
Scranton       MOCLDY    62  56  80 S7        29.65F
$$

CTZ002-004>006-009-010-012-RIZ004-006-007-MAZ004-011-015-251300-
SOUTHERN NEW ENGLAND
 IN CT

CITY           SKY/WX    TMP DP  RH WIND       PRES   REMARKS
Bradley INTL   CLOUDY    57  55  93 S10       29.79S
Hartford       CLOUDY    55  55 100 S8        29.80S
Danbury        CLOUDY    55  54  96 S7        29.79F
Wtrbury/Oxford FOG       54  52  94 S7        29.81S VSB 1/4
Bridgeport     FOG       47  45  93 E3        29.81S VSB<1/4
Meriden        FOG       55  53  93 S7        29.80F VSB 1/4
New Haven      FOG       49  49 100 SE9       29.81F VSB 1/4
Chester        FOG       52  52 100 SE3       29.82F VSB<1/4
Groton         FOG       49  48  97 E6        29.84S VSB 1/4
Wilimantic     CLOUDY    57  56  96 S6        29.83S

 IN RI

CITY           SKY/WX    TMP DP  RH WIND       PRES   REMARKS
Providence     FOG       48  47  96 CALM      29.86R VSB<1/4
Block Island   NOT AVBL
Westerly       FOG       49  47  93 CALM      29.86R VSB<1/4
 IN MA

CITY           SKY/WX    TMP DP  RH WIND       PRES   REMARKS
Boston         PTCLDY    51  51 100 S8        29.85R
Worcester      FOG       54  53  97 S12       29.82S VSB 1/4
Westfield      CLOUDY    56  56 100 S7        29.78R FOG
Provincetown   PTCLDY    48  48 100 S9        29.88F
Nantucket      CLEAR     47  45  93 SE9       29.89F
$$

ANZ330-335-338-340-345-350-353-355-251300-
COASTAL MARINE OBSERVATIONS


STATION/POSITION TIME  SKY/WX   TEMP    WIND        PRES    VSBY  WAVE
                                AIR SEA DIR/SP/G                  HT/PER
                 (UTC)          (F)     (DEG/KT/KT) (MB)    (MI)  (FT/S)
NY HARB ENTRANCE 1050            46 44  160/ 10/ 12 1008.6          4/11
20 S FIRE ISLAND 1150            48 43  150/ 10/ 12 1008.8          4/10
GREAT SOUTH BAY  NOT AVBL
23 SSW MONTAUK P 1050            47 44              1010.7          3/10
15 E BARNEGAT LI 1130               44                N/A           5/11
HUDSON CANYON    1050               47              1009.8          5/ 9
KINGS POINT      1142            50 40              1008.3
EXECUTION ROCKS  NOT AVBL
CENTRAL LI SOUND NOT AVBL
EASTERN LI SOUND NOT AVBL
ROBBINS REEF     1142            47     150/  7/  8 1008.6
$$


>>>>>>>>>>>>>>>>>>>>>>>>>>>> KEY <<<<<<<<<<<<<<<<<<<<<<<<<<<
>                                                          <
>     SKY/WX - Sky Condition/Present Weather               <
>     TMP    - Temperature in Fahrenheit                   <
>     DP     - Dew Point in Fahrenheit                     <
>     RH     - Relative Humidity in Percent                <
>     WIND   - Direction (from) and Speed in MPH           <
>     PRES   - Mean Sea Level Pressure (inches of Hg)      <
>     WCI    - Wind Chill Index                            <
>     VSB    - VISIBILITY IN MILES                         <
>     HX     - HEAT INDEX                                  <
>     TC     - TEMPERATURE IN CELSIUS                      <
>     VRB    - VARIABLE WIND DIRECTION                     <
>                                                          <
>>>>>>>>>>>>>>>>>>>>>>>>>>>> KEY <<<<<<<<<<<<<<<<<<<<<<<<<<<




USA.gov is the U.S. government's official web portal to all federal, state and local government web resources and services.